User: anonymous   Login
Location: Unspecified
(0.0000°N, 0.0000°E)
Time: 09:16:26
(UTC+00:00)
Language:

STARS-C - Orbit

View from above orbital plane
View from above orbital plane
View from above satellite
View from above satellite

Ground track
Ground track

The orbit data is extracted from the following two-line orbital elements,

1 41895U 98067KR  18051.62654434  .00565684  16506-3  76460-3 0  9997
2 41895  51.6267 196.7001 0006966 313.1808  46.8621 16.05768973 67137
Epoch (UTC): 20 February 2018 15:02:13
Eccentricity: 0.0006966
inclination: 51.6267°
perigee height: 254 km
apogee height: 263 km
right ascension of ascending node: 196.7001°
argument of perigee: 313.1808°
revolutions per day: 16.05768973
mean anomaly at epoch: 46.8621°
orbit number at epoch: 6713

The dashed part of the orbit path shows where the satellite is in the earth's shadow,  

DLR